Wind_Speed
7 7 7 7 7 7 7 7 7 7 7 7 6 5 5 6 7 8 8 9 10 12 13 14 14 15 15 16 17 17 17 18 18 19 19 19 21 22 23 23 22 21 22 24 25 25 26 27 28 29 30 31 32 33 33 33 34 32 30 31 31 29 29 29 30 31 29 27 28 31 35 36 37 38 37 35 35 34 33 33 34 33 31 30 31
8 7 7 7 6 7 7 7 7 7 7 7 6 5 5 6 7 9 10 10 11 12 13 14 15 15 16 16 17 17 17 18 18 19 20 20 20 21 22 23 23 23 23 24 25 26 27 29 30 31 32 33 33 35 35 35 35 34 32 32 31 29 30 31 31 31 29 29 31 32 33 34 36 38 36 35 35 35 34 34 34 35 34 32 32
8 7 6 6 5 5 6 6 7 7 7 7 6 6 6 7 9 10 12 13 13 13 13 14 15 15 16 16 17 17 17 18 18 19 20 21 21 22 22 23 23 24 24 24 25 27 28 30 31 32 34 35 36 37 38 38 37 36 35 34 32 30 30 32 33 31 30 31 34 33 32 33 34 34 35 36 36 35 35 35 35 36 36 35 34
7 7 6 4 5 5 5 6 6 7 7 6 6 6 7 8 10 12 13 14 14 14 14 15 15 15 16 17 17 18 18 18 19 19 20 21 22 22 22 23 24 25 26 27 27 28 30 31 32 33 34 36 37 38 39 40 40 39 38 37 35 33 31 32 34 33 31 33 35 34 35 35 32 32 35 37 38 36 35 36 36 35 36 37 36
7 8 6 4 4 5 6 6 6 6 6 6 6 7 8 9 11 12 13 15 15 16 16 17 17 17 17 18 19 19 19 20 20 20 20 21 22 22 23 23 24 25 26 28 29 30 32 33 34 35 36 37 38 39 39 40 41 40 41 38 35 35 33 34 35 34 34 36 35 34 36 36 32 34 38 37 38 37 36 36 36 36 36 38 39
6 8 7 6 5 6 6 7 7 7 7 7 8 9 10 11 12 14 15 16 17 18 19 19 19 19 18 19 20 21 21 21 21 21 22 22 23 23 23 24 24 25 27 28 30 31 32 34 35 36 37 38 39 40 40 40 40 41 41 37 34 35 35 35 35 36 36 37 37 36 36 37 34 36 38 37 37 38 37 37 37 38 38 39 40
6 8 8 7 7 6 6 7 8 8 9 10 10 11 12 13 15 16 17 18 19 20 20 21 21 20 20 19 20 21 22 22 22 22 22 23 24 24 24 25 25 26 27 28 30 31 33 35 36 37 39 40 40 41 41 41 40 40 40 38 37 37 36 36 36 37 37 37 39 39 38 38 37 37 38 37 39 40 39 39 39 40 40 39 40
8 8 9 9 9 8 8 8 8 9 10 11 12 13 14 15 16 17 18 20 21 22 22 22 22 21 20 20 20 21 22 22 22 22 22 23 24 25 25 26 26 27 28 29 31 32 34 36 37 39 40 41 41 41 41 41 40 39 38 38 39 39 38 37 37 38 38 37 39 41 40 39 39 40 39 39 40 41 41 40 41 42 41 41 41
10 10 10 11 11 11 10 10 10 10 10 12 13 14 15 16 17 18 19 20 21 23 23 23 22 21 21 21 21 22 23 23 23 23 23 24 24 25 26 27 27 28 29 30 32 33 35 37 39 40 41 42 42 42 41 41 40 38 38 38 38 38 38 38 37 37 38 38 40 42 42 40 41 42 40 40 41 41 41 39 40 44 44 42 41
13 12 12 13 13 13 13 13 13 12 12 14 14 15 16 17 18 19 19 21 22 23 24 24 23 23 22 22 22 23 24 25 26 25 25 25 26 26 27 28 28 28 29 31 32 34 36 38 40 41 42 43 43 42 41 41 39 37 36 37 37 38 38 38 39 37 38 38 40 42 43 43 43 43 42 40 40 42 44 40 39 45 46 43 41
15 15 14 14 15 15 15 15 15 15 15 16 17 18 18 19 19 20 20 21 23 24 24 25 25 24 24 24 25 25 26 27 28 28 27 27 28 28 29 29 30 30 31 32 34 35 37 38 41 42 44 45 44 43 42 41 40 37 35 35 37 38 37 38 39 38 37 37 39 40 42 44 45 43 42 41 40 42 45 43 41 45 48 45 43
17 17 17 16 16 16 17 18 17 17 18 19 19 20 20 20 21 21 22 23 24 25 25 25 26 26 26 26 26 27 27 28 29 29 29 29 29 30 30 31 32 32 33 35 36 37 38 39 41 43 45 46 46 44 43 42 41 38 36 35 36 37 37 38 38 38 38 37 37 38 40 44 45 44 43 43 42 43 45 44 42 44 47 47 45
20 19 19 18 17 18 19 20 20 20 20 21 21 22 22 21 22 23 23 24 25 26 26 27 27 27 27 28 28 29 29 29 30 30 31 31 31 31 31 32 33 34 35 36 38 39 40 40 41 43 44 46 46 45 44 42 41 40 38 36 36 37 37 37 38 38 37 37 37 37 38 41 43 45 45 45 44 44 45 45 42 42 45 47 46
22 22 23 19 18 20 21 22 23 22 22 23 23 24 23 23 23 24 24 25 26 27 27 28 28 28 28 29 30 30 30 30 30 31 32 32 32 32 32 33 33 34 35 37 38 40 41 41 42 43 44 45 46 45 44 42 42 42 41 38 37 37 37 37 37 37 37 38 38 37 36 37 41 43 44 45 46 45 46 46 45 44 45 46 44
24 25 25 21 20 22 24 25 26 25 25 24 25 25 25 24 24 25 25 26 26 27 28 28 29 29 29 30 31 32 32 31 31 32 33 33 33 33 33 33 34 35 36 38 39 41 41 42 42 43 44 45 46 45 44 42 41 41 41 40 38 36 36 36 37 36 36 37 38 38 37 37 39 41 42 44 46 46 46 46 46 46 47 47 45
25 27 27 23 22 24 26 28 29 28 27 26 26 26 26 26 25 26 26 27 27 28 29 29 30 30 30 31 32 33 33 33 32 33 34 34 34 34 34 34 35 36 37 39 40 42 42 42 43 43 43 44 45 45 44 42 40 40 41 40 38 37 35 35 36 36 35 36 36 37 37 38 40 41 42 42 43 45 47 47 46 45 46 48 46
25 27 28 25 23 24 27 29 31 30 29 28 28 28 28 27 27 27 27 28 28 29 29 30 31 31 31 31 33 34 34 34 34 34 35 35 36 35 35 36 36 37 38 40 41 43 43 43 44 44 44 44 45 46 45 43 41 40 40 40 39 38 36 35 35 36 36 35 35 36 36 38 40 42 44 42 40 42 45 47 47 45 45 47 49
23 25 28 26 22 23 27 30 31 31 30 30 30 30 29 28 28 28 28 29 29 30 30 31 32 32 32 32 33 34 35 35 35 35 36 37 37 37 36 37 37 38 39 41 42 43 44 44 45 45 44 45 45 46 46 44 42 40 40 41 40 39 38 35 34 35 37 37 35 35 35 36 38 42 45 44 42 42 42 45 48 47 47 47 49
22 22 26 25 20 22 27 29 29 30 30 31 31 30 30 29 29 29 29 30 30 31 31 32 33 33 32 33 34 35 35 36 36 37 37 37 38 37 37 38 39 40 40 42 43 45 45 46 46 46 46 46 46 46 46 45 42 41 41 41 41 41 39 37 35 35 36 37 37 36 36 36 37 41 44 46 46 45 44 46 48 48 49 48 47
22 22 24 22 18 20 24 26 27 27 28 30 31 30 30 30 31 31 31 31 31 31 32 33 33 34 33 33 34 35 36 36 37 38 38 38 38 38 38 39 39 40 42 43 45 46 47 47 48 48 47 48 47 47 47 45 42 40 41 41 41 41 41 39 37 36 36 37 38 38 37 38 39 40 42 45 47 47 47 48 49 49 49 48 47
23 22 24 21 17 20 24 25 26 26 28 31 31 30 31 32 32 32 32 32 32 32 33 34 34 34 34 34 34 35 36 37 38 38 38 38 39 39 39 40 40 41 42 44 46 47 48 48 49 48 48 49 49 49 48 45 42 41 41 40 40 40 40 40 40 38 37 38 39 40 39 38 39 40 41 43 45 47 48 49 50 50 49 49 49
23 23 25 22 19 21 25 26 27 27 28 31 32 32 32 33 33 33 34 34 33 33 34 35 35 35 34 34 35 36 37 38 38 39 39 39 39 39 40 41 41 42 43 45 47 48 49 49 49 49 49 49 50 49 48 45 43 41 40 39 38 38 38 39 40 39 38 38 39 41 40 39 38 39 41 43 44 46 49 50 51 50 49 50 51
24 24 25 23 20 23 26 27 28 28 29 31 32 33 33 34 34 34 35 36 35 34 34 35 36 36 35 35 35 36 38 38 39 39 40 40 40 41 41 41 42 43 45 46 48 49 50 49 49 49 50 50 50 49 47 45 43 41 40 39 37 36 36 37 38 38 38 37 39 41 42 41 40 39 39 42 44 45 47 50 51 51 49 49 51
24 24 26 25 23 24 26 27 28 28 30 31 32 33 34 35 36 36 36 37 37 37 36 36 37 36 36 35 36 37 39 39 40 40 41 41 42 43 43 43 44 44 46 47 48 49 50 50 49 50 50 50 49 47 46 45 43 42 40 38 36 34 34 35 36 36 37 37 37 40 42 42 41 41 40 41 43 44 46 49 51 51 50 48 49
25 25 26 26 25 26 27 27 29 29 30 31 32 33 34 34 36 37 38 39 39 39 38 38 38 37 36 37 37 38 39 40 41 41 42 43 43 44 45 46 45 46 47 48 49 49 50 51 50 50 51 49 47 46 45 44 43 41 39 38 36 34 33 33 33 35 36 36 37 38 41 41 40 41 42 42 43 43 44 47 49 51 51 48 47
26 26 27 27 26 27 28 29 29 30 31 32 32 33 34 34 34 37 41 43 42 40 39 40 39 38 37 37 38 39 40 41 42 42 43 44 45 46 46 47 47 47 48 48 49 49 51 51 51 51 50 47 46 46 45 42 41 39 38 37 35 33 33 32 31 33 35 36 37 38 39 40 40 40 41 42 42 43 43 45 47 48 50 50 48
26 27 27 28 28 27 28 30 30 30 31 32 33 33 33 34 34 37 41 43 42 40 41 41 40 39 39 38 39 40 41 42 43 43 44 45 45 46 46 46 47 48 48 49 50 50 51 52 51 51 49 46 44 44 43 41 39 37 36 36 34 33 32 31 30 32 34 36 37 38 38 39 39 39 38 39 40 40 42 43 44 46 49 51 50
27 27 28 28 29 28 29 30 31 31 31 32 33 33 33 34 35 38 41 41 41 42 43 42 41 41 40 39 40 41 42 43 44 45 45 46 46 46 46 46 47 47 48 49 50 51 52 52 51 50 48 46 43 42 42 40 37 36 35 34 33 32 31 30 30 31 33 35 36 37 38 38 38 37 36 36 36 36 38 41 43 45 48 51 51
28 28 29 30 30 29 30 31 32 32 32 32 34 34 35 35 35 37 40 41 43 44 43 42 41 41 40 40 41 43 44 45 45 46 46 46 46 46 46 46 47 48 48 49 50 51 51 51 50 49 47 44 42 41 40 38 36 34 33 33 32 31 29 29 29 31 33 34 35 37 38 38 37 36 35 35 34 34 36 38 41 43 46 50 52
29 30 30 31 31 31 31 32 33 33 33 34 35 34 34 34 35 37 41 43 43 43 43 42 41 40 40 41 43 44 45 46 46 46 47 46 46 45 46 46 47 48 49 49 50 50 51 50 49 48 46 43 40 39 38 37 35 34 32 31 30 29 29 28 28 30 32 33 33 36 38 37 35 35 35 35 34 33 34 35 38 41 43 47 50
31 31 31 32 33 33 33 33 34 34 34 35 35 34 34 35 38 40 42 42 43 42 42 41 40 40 41 42 43 45 45 46 47 47 47 46 46 46 46 46 47 48 49 49 49 50 50 49 48 46 44 41 38 37 36 35 34 32 31 29 28 28 28 28 28 29 31 32 33 36 38 36 33 33 35 35 33 33 33 34 35 37 40 44 47
32 32 32 33 34 34 33 34 35 35 35 36 35 35 35 37 40 42 41 41 42 42 42 41 41 41 41 42 44 45 46 46 47 48 47 47 47 47 46 47 47 48 48 48 49 49 48 47 46 44 42 39 37 35 34 33 31 30 29 28 28 28 28 27 28 28 30 32 34 35 37 35 32 31 33 34 33 32 33 33 34 35 37 41 44
32 32 32 33 33 34 33 34 35 35 35 36 35 36 37 38 40 41 41 41 42 42 41 41 41 41 42 43 44 45 46 47 48 48 48 48 48 47 46 47 47 47 48 48 48 48 47 46 44 42 39 37 35 34 33 32 30 29 28 28 28 28 27 27 28 29 30 33 34 36 35 33 32 31 32 33 33 32 32 33 33 33 35 37 40
31 32 32 32 33 33 33 33 33 33 34 35 35 36 37 39 40 40 40 41 42 41 42 42 41 41 42 44 45 46 47 48 48 48 48 48 47 46 46 47 47 47 47 47 48 47 46 44 42 39 37 36 34 33 32 30 29 28 27 27 27 27 27 28 28 29 31 33 34 36 35 32 30 31 30 30 31 32 33 33 32 31 32 35 38
30 31 31 31 32 32 32 32 32 33 34 35 35 36 38 39 39 39 39 41 42 42 43 42 41 42 43 45 47 47 48 48 48 47 47 47 46 45 46 46 47 47 47 47 47 46 44 41 39 37 36 35 34 33 30 29 28 27 27 26 26 26 26 27 28 28 30 32 33 35 35 32 29 29 28 26 28 31 32 31 31 30 30 33 37
28 29 29 29 30 30 30 30 31 32 33 34 35 37 38 38 38 38 39 41 42 43 43 43 42 43 45 46 48 48 48 47 47 47 46 45 44 44 45 46 46 46 46 46 45 43 42 39 37 36 36 35 34 32 29 28 27 26 26 26 25 26 26 27 28 28 29 31 32 34 35 32 29 28 27 25 25 28 30 30 30 30 30 31 35
27 27 28 28 28 29 29 30 31 32 33 34 35 37 37 37 37 38 40 42 43 43 43 43 43 44 46 47 49 49 48 47 46 46 45 43 43 44 44 45 45 45 45 45 43 41 40 37 35 35 35 34 33 31 28 27 26 25 25 25 25 26 26 26 27 29 29 30 32 34 35 33 30 27 25 24 23 24 29 30 29 29 30 31 33
27 27 28 28 29 29 30 31 32 33 34 35 35 36 36 37 38 39 41 41 42 44 44 44 45 45 46 48 49 49 48 47 45 45 44 43 43 43 43 44 44 44 44 42 40 39 38 35 34 35 34 32 31 29 26 25 25 24 25 25 25 26 26 26 27 28 29 30 31 33 35 33 30 27 24 23 23 22 26 29 27 27 30 32 33
28 29 29 30 30 30 31 31 32 34 34 35 35 36 37 38 39 40 41 42 43 44 45 46 46 46 46 47 48 49 48 47 45 44 44 43 42 42 43 43 42 43 42 39 38 37 36 33 33 33 32 30 29 28 26 25 25 24 24 24 25 26 26 26 26 28 29 30 31 33 34 34 31 28 24 21 21 20 22 25 26 27 30 32 32
31 31 31 31 31 32 32 33 34 34 35 35 36 37 38 38 39 40 41 43 45 45 46 46 46 46 46 46 47 48 49 47 45 44 44 43 42 42 42 41 41 42 41 39 38 37 34 32 31 32 31 29 28 28 28 26 25 24 24 24 24 25 26 26 26 27 28 29 31 32 34 34 32 29 25 20 18 18 19 22 24 26 30 31 31
33 33 33 33 34 34 34 35 36 36 36 36 37 38 39 40 41 42 42 44 45 46 45 46 46 46 46 46 47 48 49 47 45 43 43 43 42 42 41 41 41 40 40 39 37 35 33 31 30 30 30 29 27 28 29 27 25 24 24 23 24 24 25 26 27 27 27 28 29 31 33 34 33 30 26 21 18 17 18 19 22 25 27 30 31
34 35 35 35 35 36 37 37 37 37 37 38 39 40 41 42 43 43 44 44 45 45 45 45 46 47 47 47 47 48 48 47 45 43 42 42 42 41 41 41 39 38 38 39 37 34 32 30 30 29 29 29 28 28 29 27 25 24 23 23 23 24 25 25 26 27 28 28 29 30 32 33 33 31 28 23 19 17 16 16 20 24 27 28 30
35 35 35 36 37 38 38 38 38 38 39 39 40 41 42 43 43 43 44 44 44 44 45 46 46 46 46 46 47 47 48 47 44 42 42 41 41 41 40 40 38 37 38 38 37 34 31 30 30 29 29 29 28 27 27 27 24 23 23 23 23 24 25 25 25 26 27 27 28 29 31 32 33 33 29 24 21 17 14 13 15 21 27 27 27
34 32 33 36 38 39 39 39 39 39 40 40 41 42 42 42 43 43 43 43 44 44 45 46 46 45 45 44 45 46 46 45 44 42 41 40 40 40 40 39 38 36 36 38 38 34 31 30 30 29 28 29 28 27 27 27 25 23 23 24 24 24 24 24 25 25 26 27 27 28 29 30 31 32 30 26 22 19 15 12 10 13 22 27 26
36 33 34 38 39 39 39 39 40 40 40 40 41 41 42 42 42 42 42 43 44 45 45 46 46 45 43 44 45 46 45 44 43 42 40 39 40 40 39 40 37 34 36 40 39 36 32 31 31 30 29 28 28 27 27 27 25 23 23 24 24 24 23 23 24 25 25 26 26 27 28 29 29 31 31 27 24 22 19 15 11 8 14 21 24
36 36 37 39 39 39 40 40 41 40 39 40 40 41 42 43 43 43 43 44 45 46 45 46 46 45 44 45 46 45 43 43 43 41 38 38 39 39 39 39 35 34 37 39 38 35 33 32 32 31 29 27 27 26 26 26 25 24 24 23 23 23 23 22 23 24 24 25 26 27 27 26 27 28 28 26 23 24 22 19 15 9 7 14 19
37 37 38 39 39 40 41 41 41 39 38 40 41 42 44 45 45 44 46 46 46 46 46 46 46 46 46 46 44 43 42 43 42 39 37 38 39 38 39 37 33 33 37 39 37 35 33 31 31 31 29 28 26 25 26 26 26 25 24 23 22 22 22 21 21 22 23 24 26 27 26 25 26 26 25 23 21 22 23 20 17 11 6 10 15
37 37 38 39 39 39 40 40 40 39 40 42 44 46 47 47 46 46 48 49 48 47 47 47 47 46 46 45 44 43 43 42 41 39 38 39 39 38 39 37 34 34 37 39 39 36 32 31 31 30 28 28 27 26 26 25 25 25 25 24 23 21 21 20 20 21 22 23 25 26 25 25 25 24 23 22 21 22 23 22 18 14 8 5 11
37 39 39 39 39 39 40 40 39 40 43 46 47 49 49 48 48 49 50 50 50 48 47 47 48 47 46 45 45 44 42 41 40 40 39 40 40 39 38 37 35 36 37 38 38 35 32 31 31 28 26 28 27 26 25 25 25 26 26 25 24 22 21 20 19 19 22 23 24 24 24 24 24 24 22 22 22 22 24 24 21 17 12 5 6
39 41 40 40 41 41 41 41 42 45 48 49 50 50 49 49 52 52 52 51 51 50 48 47 47 46 46 46 45 43 41 41 41 40 39 41 41 40 37 36 35 36 36 36 36 34 31 31 31 28 26 27 27 25 25 26 26 26 26 25 24 23 22 22 20 20 22 23 23 23 24 23 23 23 23 22 21 22 23 23 22 20 16 10 5
41 42 42 42 43 43 42 44 47 50 51 50 50 50 51 53 54 54 53 52 51 50 49 47 47 46 45 45 43 41 41 42 41 40 40 40 40 40 38 36 35 36 35 35 35 34 31 31 32 30 28 27 26 25 25 27 28 28 26 24 23 23 22 22 21 21 22 22 21 22 23 22 21 22 23 22 21 21 22 22 22 22 19 15 9
Wind_Direction
355 358 356 0 1 358 1 358 359 357 353 355 353 353 348 341 339 335 335 332 334 338 339 342 343 342 340 337 335 333 331 328 326 324 323 325 325 326 328 331 331 327 322 320 320 319 317 316 315 314 313 311 309 306 303 301 299 296 291 287 285 283 282 277 270 271 272 272 269 264 262 258 255 258 260 260 261 259 256 253 250 249 249 247 245
347 346 344 347 349 349 353 356 357 352 350 350 350 354 348 341 341 337 334 329 327 328 330 335 339 339 337 335 331 330 329 326 323 323 323 326 328 329 330 331 331 329 327 324 322 323 322 320 319 318 316 314 312 308 305 304 301 296 293 290 285 281 282 278 272 271 273 272 269 266 267 263 258 258 257 258 259 256 255 254 251 249 250 249 246
342 339 335 336 339 344 352 357 356 351 347 343 341 344 343 339 338 336 332 328 325 323 322 325 329 333 333 331 328 327 326 324 323 323 324 326 329 330 330 330 329 329 328 325 323 322 322 321 320 319 317 315 314 310 308 306 302 298 295 293 287 282 280 277 274 274 274 273 271 269 269 265 261 262 260 257 256 253 251 252 251 249 249 249 247
334 330 324 328 333 335 347 354 358 0 355 345 337 330 328 329 330 331 331 330 329 326 323 321 321 324 326 327 326 325 325 324 322 322 323 324 326 328 328 328 328 327 327 326 325 324 322 321 320 318 316 315 313 311 309 306 303 299 296 294 290 287 282 278 277 276 275 272 270 269 268 266 265 265 261 255 252 250 248 249 250 249 248 248 247
317 315 315 323 327 326 333 343 353 2 4 357 349 338 333 333 333 335 336 336 335 333 330 326 323 321 322 325 326 325 325 324 323 321 321 320 321 323 324 324 325 325 324 325 325 324 323 321 320 319 317 315 314 312 310 306 303 300 296 292 288 286 283 279 278 276 274 271 269 268 266 267 266 260 258 255 251 249 247 248 251 250 249 248 246
297 301 314 323 316 312 319 332 341 348 352 349 347 343 341 339 339 340 339 339 338 336 333 330 326 323 320 322 325 325 324 322 321 320 319 317 317 318 319 320 320 321 321 322 322 321 320 320 319 317 316 316 315 314 312 309 305 300 296 290 285 284 280 277 275 272 272 273 272 269 266 268 266 260 259 256 251 246 245 250 252 250 249 248 245
281 288 301 305 300 297 302 314 324 331 335 336 336 336 337 338 338 339 339 339 338 336 334 331 328 324 320 319 320 322 321 319 318 317 316 314 312 313 314 315 316 317 319 319 320 320 319 319 318 317 316 315 314 314 312 311 308 301 295 291 287 285 280 276 273 271 270 270 272 271 268 268 267 264 261 257 253 246 244 251 253 250 249 247 245
271 277 284 287 289 290 291 298 308 316 321 323 326 328 330 333 334 335 336 336 336 335 333 331 328 324 319 316 314 317 318 317 316 314 313 312 311 310 311 312 314 315 317 319 320 320 319 319 318 317 316 315 315 314 313 312 309 303 296 292 289 287 283 279 275 272 269 266 267 269 268 268 267 266 263 257 256 250 247 252 252 248 248 248 245
264 270 277 279 282 285 287 292 298 305 311 313 317 321 324 327 328 330 330 331 332 331 331 330 328 324 319 315 312 313 315 316 316 314 312 312 311 310 310 310 312 315 317 319 320 320 319 319 318 317 316 315 315 314 313 312 310 305 299 294 290 287 285 283 278 274 271 267 265 265 266 266 265 265 263 260 259 254 251 253 249 245 245 248 248
264 267 273 274 278 283 286 290 295 301 306 308 312 315 317 321 322 323 323 324 326 327 329 329 328 326 321 318 314 312 313 315 317 316 314 313 312 310 310 310 312 315 317 318 319 319 320 319 319 319 318 317 316 315 313 312 310 306 300 294 292 289 286 284 282 278 274 270 266 265 265 264 263 264 263 261 262 259 256 254 249 246 245 246 248
266 267 271 272 276 282 285 289 293 298 302 304 307 309 312 315 317 318 317 318 320 322 325 327 328 326 324 322 319 316 315 315 316 317 316 314 312 311 311 311 313 315 317 318 319 320 321 321 321 321 320 318 317 315 314 312 310 307 300 294 292 291 288 285 283 281 278 273 269 266 265 263 263 264 264 262 261 261 261 255 250 249 246 245 248
264 266 268 271 276 281 285 288 290 294 297 299 301 304 307 310 312 314 313 313 315 317 320 324 326 326 326 325 322 319 316 314 315 316 316 315 313 312 311 312 313 315 317 318 319 320 321 322 323 323 321 320 317 316 314 312 310 307 301 296 293 291 288 286 284 283 281 278 274 270 267 264 263 262 261 261 259 259 262 256 249 249 247 245 247
263 265 266 270 277 281 284 287 288 291 294 295 297 299 302 306 308 311 311 311 313 314 317 321 324 325 326 325 323 320 317 314 314 315 316 316 314 312 311 312 313 315 316 317 318 319 321 323 324 324 323 320 318 316 314 312 309 307 303 298 294 291 288 285 284 284 282 280 277 274 271 268 266 263 260 260 258 257 260 257 249 248 245 243 245
267 268 268 270 278 283 286 287 288 291 293 294 294 296 299 303 306 308 309 310 311 312 315 318 320 322 324 325 323 321 318 316 315 315 316 316 314 312 311 311 312 313 314 314 316 318 319 322 323 324 323 321 318 315 313 310 308 306 303 299 295 290 287 285 284 283 281 280 277 275 273 271 268 266 262 259 258 256 258 257 252 248 245 244 246
271 271 270 272 278 283 286 287 288 290 293 294 293 294 297 300 303 306 307 309 310 311 314 316 317 318 320 322 322 321 319 317 315 314 315 315 314 311 310 310 310 311 312 313 314 316 318 320 322 323 322 320 317 314 312 309 306 303 301 299 295 290 287 284 283 283 281 279 278 275 272 270 269 268 265 261 260 258 257 256 253 249 246 246 248
275 275 274 274 276 280 284 286 287 289 291 292 292 293 295 299 302 304 305 307 309 311 313 315 314 315 317 319 319 319 319 317 315 314 314 315 314 311 310 309 309 309 310 312 314 315 317 319 320 321 321 319 316 313 310 308 305 301 299 297 294 289 285 282 282 283 282 280 279 277 274 270 268 268 266 263 260 259 258 258 255 251 249 248 248
276 278 278 274 274 278 280 282 284 287 288 290 292 293 294 298 301 302 304 305 307 310 312 313 313 313 314 316 317 318 317 316 315 314 314 314 313 312 309 308 308 308 309 311 312 314 316 318 319 320 320 319 316 312 310 307 304 301 297 295 292 289 286 283 281 281 283 283 281 280 276 271 268 265 264 263 261 258 256 256 256 253 251 250 250
278 279 279 274 274 277 278 279 283 285 287 289 291 292 294 297 299 300 302 303 305 308 310 312 313 313 313 313 314 315 315 315 314 313 313 313 313 312 310 308 308 308 309 310 312 313 315 317 319 319 319 318 315 312 309 307 304 301 297 293 290 288 287 286 284 283 283 284 283 280 278 275 269 265 264 262 262 261 257 253 254 254 252 252 254
279 279 278 274 274 278 278 280 282 285 288 289 290 291 293 295 297 298 299 300 303 306 309 312 312 312 311 310 311 313 313 313 313 313 313 314 314 312 310 309 308 309 309 310 312 314 316 318 319 319 319 318 315 312 309 307 304 301 297 292 289 288 287 287 286 285 284 284 283 281 279 278 273 268 265 262 260 260 259 254 252 252 251 251 254
277 277 277 276 278 281 280 282 284 286 289 288 289 291 292 294 295 296 296 298 301 304 307 310 311 311 309 308 309 311 311 312 312 313 314 314 314 313 311 310 309 310 310 311 313 315 317 319 320 320 319 318 315 312 309 307 304 300 295 291 288 287 287 287 286 286 285 283 281 279 278 277 274 270 267 264 260 257 256 255 253 252 250 247 249
275 277 275 274 279 283 283 284 286 287 288 288 289 291 291 292 293 294 295 296 299 303 305 308 310 309 308 306 308 309 310 311 312 313 315 315 314 314 312 311 310 311 311 312 314 316 318 320 320 319 319 317 315 312 309 307 304 299 295 291 288 287 287 287 287 287 286 283 280 278 277 275 273 270 268 266 263 257 254 253 254 252 250 246 246
276 278 275 274 282 286 285 286 287 287 287 287 289 290 290 291 292 292 294 296 298 301 303 307 309 308 307 306 307 308 309 310 312 313 315 315 314 314 313 312 312 312 313 314 316 318 319 320 320 319 318 316 314 311 309 307 304 300 296 292 289 287 286 286 287 286 285 283 280 278 277 275 273 270 267 265 264 261 255 252 252 252 250 248 245
277 279 278 279 285 287 285 286 287 287 286 287 288 290 290 290 291 292 295 296 297 299 303 306 308 307 307 307 307 307 308 309 311 313 315 315 315 315 314 314 313 314 315 316 317 318 319 320 320 319 318 316 313 312 310 307 303 300 298 295 291 289 287 286 286 285 283 282 280 278 277 276 274 270 267 265 264 263 259 253 251 250 250 250 247
278 281 283 285 287 287 287 287 287 286 286 287 288 289 290 291 293 294 295 295 297 301 304 307 307 307 308 307 307 307 308 309 312 314 316 317 317 316 315 315 315 315 316 317 318 319 320 321 320 319 318 316 313 312 310 306 303 301 299 297 294 291 288 287 286 285 284 283 281 279 277 277 277 273 269 266 264 263 261 256 252 250 248 248 247
280 281 284 287 288 289 289 289 289 289 288 288 289 290 292 293 294 294 295 296 298 302 306 308 307 308 308 307 306 307 308 310 313 315 317 318 318 318 316 316 316 316 317 318 319 320 320 321 320 318 317 316 314 313 310 306 304 303 300 297 295 293 291 289 288 287 286 286 284 282 280 279 278 275 270 267 264 262 262 258 253 249 247 246 246
280 282 284 287 288 289 290 289 289 289 289 289 290 290 291 292 291 291 293 297 299 303 307 308 308 308 308 306 306 308 310 312 314 317 319 319 319 317 316 316 316 317 318 319 321 321 321 320 319 318 317 316 314 312 309 305 304 303 300 297 296 294 293 292 291 290 289 290 288 286 284 282 280 277 270 266 265 261 259 258 254 249 246 245 244
278 281 283 284 285 285 286 286 286 286 287 287 288 289 290 290 289 290 293 297 300 305 308 307 308 308 307 306 307 309 311 313 316 318 319 319 318 317 316 316 316 317 319 320 322 322 320 320 319 318 317 315 313 310 306 304 304 302 300 298 297 296 296 295 294 292 291 292 292 291 289 286 283 278 270 266 266 263 258 257 255 249 244 242 242
280 281 281 281 282 282 282 283 284 285 287 287 288 289 289 289 289 292 295 297 300 304 306 306 307 308 307 307 308 310 312 314 317 318 319 318 317 315 315 315 316 318 320 321 322 321 320 319 318 317 317 315 313 310 307 305 305 304 301 299 298 297 298 297 296 295 293 294 295 294 292 291 286 279 272 269 268 265 258 255 254 250 243 241 240
282 283 282 282 282 283 283 284 286 287 289 289 289 290 290 291 292 293 295 296 299 301 303 305 306 306 307 308 309 311 313 315 317 318 317 316 315 314 315 316 317 318 320 321 321 320 319 318 318 318 317 315 313 311 309 308 308 306 303 301 300 299 300 299 298 297 297 297 298 297 295 294 288 279 273 271 270 266 259 255 254 251 245 241 239
283 282 283 284 285 286 287 287 288 289 289 288 289 291 292 292 292 291 292 295 298 299 302 304 306 307 308 308 309 311 314 315 316 316 315 315 314 315 316 317 318 319 320 321 320 319 318 319 319 318 317 315 314 313 312 311 311 309 306 304 304 304 303 302 300 299 300 301 302 300 298 295 288 280 275 274 272 266 259 254 253 252 247 242 240
283 283 283 285 286 287 288 287 288 288 288 288 290 292 291 290 290 290 292 295 298 299 302 304 306 307 308 307 309 312 314 314 314 314 314 315 316 316 316 317 318 320 320 320 319 318 319 319 319 318 316 314 313 313 313 313 311 309 308 308 308 307 306 304 302 302 304 306 305 304 302 297 289 281 278 277 273 266 260 255 252 251 247 242 241
282 282 283 283 284 285 286 286 287 287 288 290 292 291 290 290 290 292 295 297 298 300 303 305 306 307 306 307 309 312 313 313 313 313 314 315 316 316 316 317 318 320 320 319 318 319 319 319 319 318 315 313 312 314 314 313 312 310 309 310 309 309 308 305 304 306 308 309 308 307 306 301 293 286 281 277 271 264 261 257 252 250 247 242 239
278 279 279 280 282 283 284 285 286 287 288 289 290 291 291 291 291 293 296 297 299 301 303 304 305 305 306 307 310 312 313 313 313 314 315 315 315 315 316 317 318 319 319 318 318 319 319 319 319 317 315 312 313 315 315 314 312 311 311 312 312 310 309 307 307 308 310 310 309 310 309 305 297 293 287 277 267 260 258 256 253 250 247 242 237
276 277 278 279 281 282 284 285 286 287 286 287 289 289 289 290 291 294 296 297 299 301 302 303 304 305 307 309 311 312 313 313 313 313 314 314 314 314 316 317 317 317 317 317 318 319 320 320 319 317 314 313 313 314 316 315 313 314 316 316 315 313 310 309 309 309 308 309 310 312 313 309 301 298 294 280 264 257 256 254 252 250 245 240 236
278 278 279 280 281 282 284 285 285 285 285 286 287 287 287 289 292 295 296 297 299 300 301 302 305 307 309 310 311 311 312 312 312 312 313 313 313 314 315 316 316 316 316 317 318 319 320 321 319 316 314 313 312 313 315 314 315 318 320 321 318 315 312 311 312 311 309 310 312 313 315 313 306 302 300 286 266 257 254 251 250 250 245 240 237
280 280 280 280 281 282 283 284 283 283 284 284 284 285 287 290 293 295 296 297 298 299 301 303 307 309 309 309 309 309 310 311 311 311 311 312 312 313 314 314 314 315 316 317 318 319 321 321 318 316 315 314 313 313 313 313 315 318 321 322 320 316 314 313 313 312 311 312 314 316 317 316 311 306 302 292 272 259 254 250 248 248 244 239 238
281 280 280 280 281 281 282 283 283 283 283 283 284 286 289 291 293 294 295 296 297 299 301 304 307 308 308 307 307 308 309 310 310 310 310 311 312 312 313 313 313 315 316 317 318 320 321 320 317 316 317 315 312 311 311 310 312 316 319 322 320 317 317 317 314 312 314 316 317 319 320 320 315 311 307 298 281 263 256 253 248 243 239 236 236
281 281 281 281 282 282 283 284 284 284 284 285 287 289 290 291 293 293 295 296 298 299 302 304 306 306 306 306 306 307 308 309 309 309 310 310 311 311 311 312 313 315 316 317 318 319 320 318 316 316 316 313 310 310 310 309 310 314 318 319 318 316 316 317 316 316 319 321 321 321 323 323 319 314 313 305 290 269 257 255 249 240 235 234 233
284 285 285 285 285 286 286 286 286 286 288 289 290 290 291 291 292 294 296 297 298 299 302 303 303 303 304 305 305 306 307 308 309 309 310 310 310 310 310 312 313 314 315 316 316 318 318 315 313 314 315 313 309 308 310 311 310 313 316 316 315 315 316 318 319 321 323 324 325 325 326 327 324 318 316 310 297 279 263 256 250 239 233 232 233
289 290 289 289 289 288 288 288 289 289 290 291 291 291 292 293 293 294 296 297 298 299 301 301 301 302 303 304 305 306 307 308 309 309 310 310 309 309 310 311 312 313 314 314 316 317 316 312 310 312 313 312 309 308 308 309 309 311 314 314 313 314 316 319 320 322 326 328 330 330 329 330 328 323 320 317 307 292 275 262 252 240 231 230 231
290 291 290 290 290 290 290 290 290 291 291 291 291 292 292 293 294 294 295 296 297 298 299 299 300 302 304 304 304 305 306 307 309 309 309 309 309 309 310 310 311 312 313 314 315 316 314 310 308 310 310 310 309 307 305 304 305 308 311 313 313 313 316 318 320 323 327 330 333 334 332 332 331 328 325 324 316 300 283 268 255 242 231 228 230
290 290 290 290 290 290 290 290 290 290 290 291 291 292 292 293 294 294 294 295 296 296 297 299 301 302 303 303 303 304 305 307 309 308 307 308 308 309 310 310 310 311 312 313 315 315 313 309 307 308 308 307 306 304 301 301 303 306 309 311 313 314 314 315 319 323 326 330 333 335 334 333 334 333 330 329 324 308 289 273 258 246 237 232 231
289 289 289 289 289 289 289 289 289 289 289 290 290 290 291 292 293 293 293 294 295 296 298 299 301 301 301 302 303 304 305 307 307 306 306 307 307 307 309 310 309 309 310 313 314 314 312 309 306 306 305 303 302 301 299 301 302 303 305 308 311 313 313 313 317 321 324 328 331 334 336 336 336 336 334 331 330 320 301 284 263 246 239 236 233
289 287 285 286 288 289 289 289 289 289 289 289 289 290 290 291 292 292 293 295 296 298 299 299 300 300 301 301 302 303 304 306 305 305 305 305 305 306 308 309 307 306 308 311 312 312 311 307 304 304 302 299 299 299 299 301 303 303 303 305 308 310 311 313 316 319 322 326 328 332 336 336 337 338 337 336 337 334 323 308 286 249 235 233 231
287 285 284 285 288 288 289 289 288 288 288 287 288 289 290 292 293 294 295 297 298 299 299 299 300 301 301 302 302 303 304 304 304 303 303 304 304 305 306 307 306 304 305 309 311 312 310 305 302 301 299 295 295 297 298 300 302 303 303 304 305 306 308 312 314 317 320 323 326 330 334 336 338 340 342 344 343 341 338 333 323 281 237 232 230
287 287 286 286 287 288 287 287 286 286 286 286 288 291 293 295 296 296 297 298 299 299 299 299 300 301 302 302 302 303 303 303 302 302 301 301 302 302 303 304 303 300 301 306 309 308 305 301 300 300 297 293 292 294 295 298 301 302 303 305 305 306 308 311 312 315 319 321 325 328 331 335 338 339 344 348 343 337 338 340 336 321 257 236 233
289 288 286 286 287 287 286 286 285 285 286 288 291 294 296 296 296 296 297 298 299 299 299 299 299 300 300 301 302 302 301 301 300 300 299 298 299 299 300 301 298 295 297 302 304 303 300 296 296 298 296 292 292 293 293 295 299 302 304 306 307 307 309 311 312 314 318 321 324 326 329 333 336 338 342 345 339 331 332 335 336 335 297 239 234
288 286 285 285 285 285 285 283 282 284 287 291 293 296 296 295 294 295 297 299 299 299 299 298 298 299 300 301 301 300 300 299 298 296 295 296 297 297 298 298 295 293 295 298 300 301 298 293 294 297 295 292 292 293 293 294 297 301 303 306 307 308 308 311 313 315 318 322 324 324 326 330 332 333 337 340 335 329 327 329 332 337 327 251 229
284 283 284 285 285 287 286 282 280 283 288 291 293 295 295 294 294 296 298 299 299 298 298 298 298 298 299 300 300 299 298 296 295 295 295 295 296 296 295 295 294 294 294 296 298 299 296 291 291 295 293 291 291 293 293 294 297 300 302 303 306 307 308 310 313 316 318 321 322 321 322 325 328 330 333 336 336 333 332 334 336 337 336 313 238
282 283 285 285 286 287 284 280 280 285 290 292 293 293 293 294 296 297 298 298 298 297 297 297 297 297 297 296 297 296 294 293 293 293 293 293 294 294 293 292 292 292 293 295 296 296 294 289 288 289 289 289 290 292 294 296 298 299 300 300 302 305 307 308 311 314 316 318 319 319 320 322 327 329 331 333 335 335 337 340 343 343 342 336 297
278 281 283 283 283 283 280 279 282 287 290 291 291 291 291 293 295 296 297 297 297 296 296 295 295 295 294 294 294 293 291 291 291 291 291 291 292 292 291 290 290 290 293 294 294 294 291 287 285 285 285 285 287 290 293 296 297 297 296 297 299 302 304 305 307 309 312 315 316 317 318 320 325 328 328 330 332 333 336 341 346 349 348 345 333
Height
5932 5931 5931 5931 5931 5931 5931 5930 5930 5930 5930 5930 5930 5930 5929 5929 5929 5928 5928 5927 5927 5926 5925 5923 5923 5922 5920 5919 5918 5917 5916 5915 5913 5912 5911 5909 5907 5905 5903 5902 5903 5903 5901 5898 5896 5895 5894 5892 5890 5889 5888 5885 5884 5882 5881 5880 5879 5879 5879 5878 5878 5878 5878 5877 5875 5874 5875 5876 5876 5875 5876 5877 5878 5878 5879 5879 5879 5878 5879 5880 5881 5881 5882 5882 5882
5932 5931 5931 5931 5931 5931 5930 5930 5930 5930 5930 5929 5929 5929 5929 5929 5929 5928 5928 5927 5926 5925 5924 5923 5922 5921 5920 5919 5917 5916 5915 5914 5912 5911 5909 5908 5906 5904 5902 5901 5900 5899 5899 5898 5895 5893 5891 5890 5888 5886 5885 5883 5881 5879 5878 5877 5875 5875 5875 5875 5875 5874 5874 5872 5871 5871 5871 5871 5870 5871 5874 5874 5873 5873 5875 5875 5874 5874 5875 5876 5878 5878 5879 5879 5880
5932 5931 5931 5931 5931 5931 5931 5930 5930 5930 5929 5929 5929 5929 5929 5929 5928 5928 5927 5926 5926 5925 5924 5922 5921 5920 5919 5918 5917 5916 5914 5913 5911 5910 5908 5906 5904 5903 5901 5900 5898 5897 5896 5896 5894 5892 5890 5888 5886 5884 5882 5880 5878 5876 5874 5873 5871 5870 5870 5870 5870 5870 5870 5869 5867 5867 5868 5867 5865 5867 5869 5868 5868 5869 5870 5870 5869 5870 5871 5872 5874 5875 5875 5876 5877
5932 5931 5931 5930 5930 5930 5930 5930 5930 5930 5929 5929 5929 5929 5929 5928 5928 5927 5926 5926 5925 5924 5923 5922 5920 5919 5918 5917 5916 5914 5913 5912 5910 5908 5907 5905 5903 5902 5900 5898 5897 5895 5894 5893 5892 5891 5889 5887 5885 5883 5881 5878 5876 5874 5871 5869 5867 5866 5865 5864 5864 5865 5866 5865 5863 5863 5864 5862 5861 5863 5863 5862 5864 5865 5864 5865 5865 5867 5868 5868 5869 5871 5872 5872 5873
5931 5931 5930 5930 5930 5930 5930 5930 5929 5929 5929 5929 5928 5928 5928 5927 5927 5926 5925 5924 5923 5922 5921 5920 5919 5918 5917 5915 5914 5913 5911 5910 5909 5907 5906 5904 5902 5901 5899 5898 5896 5894 5893 5891 5889 5888 5886 5885 5883 5881 5879 5877 5874 5872 5870 5867 5864 5862 5861 5860 5860 5859 5860 5860 5859 5859 5859 5858 5857 5859 5858 5857 5860 5859 5858 5861 5862 5863 5864 5865 5866 5867 5868 5868 5869
5931 5930 5929 5929 5929 5929 5929 5929 5929 5928 5928 5928 5927 5927 5927 5926 5926 5925 5924 5923 5922 5921 5919 5918 5917 5916 5915 5913 5912 5911 5909 5908 5907 5906 5904 5903 5901 5900 5898 5896 5895 5893 5892 5890 5888 5886 5884 5883 5881 5879 5877 5875 5872 5869 5867 5864 5862 5859 5857 5857 5857 5856 5856 5856 5855 5854 5854 5854 5853 5854 5854 5853 5855 5854 5854 5857 5857 5857 5860 5861 5862 5862 5863 5863 5864
5930 5929 5929 5929 5929 5929 5929 5928 5928 5927 5927 5926 5926 5926 5925 5925 5924 5923 5922 5921 5920 5919 5918 5917 5915 5914 5913 5912 5911 5909 5908 5907 5906 5904 5903 5901 5900 5898 5897 5895 5893 5892 5890 5888 5886 5884 5882 5880 5878 5876 5874 5871 5869 5866 5863 5861 5858 5856 5854 5853 5853 5852 5852 5852 5851 5850 5850 5850 5848 5848 5849 5849 5850 5849 5850 5851 5851 5853 5855 5856 5857 5857 5858 5859 5859
5929 5929 5928 5928 5928 5928 5928 5927 5927 5926 5926 5925 5925 5924 5924 5923 5922 5921 5920 5919 5918 5917 5916 5915 5914 5913 5911 5910 5909 5908 5907 5906 5905 5903 5901 5900 5898 5896 5895 5893 5891 5890 5888 5886 5884 5882 5879 5877 5874 5872 5870 5868 5865 5863 5860 5858 5855 5852 5850 5849 5848 5847 5847 5846 5846 5846 5846 5847 5845 5843 5844 5845 5845 5844 5845 5846 5846 5848 5850 5850 5851 5852 5853 5853 5854
5927 5927 5927 5927 5927 5927 5927 5926 5926 5925 5925 5924 5924 5923 5922 5922 5921 5920 5919 5918 5917 5916 5915 5914 5913 5911 5910 5909 5908 5907 5905 5904 5903 5901 5899 5898 5896 5894 5892 5891 5889 5887 5885 5883 5881 5878 5876 5873 5871 5869 5866 5864 5861 5859 5857 5854 5851 5849 5846 5844 5843 5842 5842 5841 5841 5841 5841 5842 5841 5839 5840 5840 5840 5839 5839 5841 5841 5843 5845 5845 5845 5846 5847 5849 5851
5926 5926 5926 5926 5925 5925 5925 5925 5924 5924 5923 5923 5922 5922 5921 5920 5919 5919 5918 5917 5916 5915 5914 5912 5911 5910 5908 5907 5906 5904 5903 5901 5900 5898 5896 5895 5893 5892 5890 5888 5886 5884 5882 5880 5878 5875 5873 5870 5867 5865 5862 5860 5857 5855 5852 5850 5848 5846 5843 5841 5839 5838 5837 5837 5836 5836 5836 5836 5835 5835 5835 5835 5834 5834 5835 5836 5837 5837 5838 5841 5841 5840 5841 5845 5847
5923 5924 5924 5924 5923 5923 5923 5923 5923 5922 5922 5921 5921 5920 5920 5919 5918 5917 5916 5915 5914 5913 5912 5911 5909 5908 5906 5905 5903 5901 5900 5898 5897 5895 5893 5892 5890 5888 5886 5884 5882 5880 5878 5876 5874 5872 5870 5867 5863 5860 5857 5855 5852 5850 5847 5845 5843 5842 5841 5838 5836 5834 5833 5832 5831 5831 5831 5830 5829 5829 5829 5829 5829 5830 5830 5831 5832 5831 5832 5835 5837 5836 5837 5840 5841
5922 5922 5922 5922 5921 5921 5921 5921 5921 5920 5920 5919 5919 5918 5918 5917 5916 5915 5914 5913 5912 5911 5910 5908 5907 5906 5904 5902 5900 5899 5897 5896 5894 5892 5890 5889 5887 5885 5883 5881 5879 5877 5874 5872 5870 5868 5866 5863 5860 5856 5853 5851 5848 5845 5843 5841 5839 5837 5837 5835 5832 5830 5829 5828 5827 5826 5826 5825 5824 5823 5823 5823 5823 5825 5825 5825 5826 5826 5826 5829 5832 5832 5832 5834 5836
5920 5920 5920 5920 5918 5918 5918 5918 5918 5918 5918 5917 5917 5916 5916 5915 5914 5913 5912 5911 5910 5908 5907 5906 5904 5903 5901 5900 5898 5896 5894 5893 5891 5889 5887 5885 5884 5882 5880 5877 5875 5873 5871 5869 5867 5864 5862 5860 5857 5854 5850 5847 5844 5841 5839 5836 5834 5832 5831 5830 5828 5826 5824 5823 5822 5821 5821 5820 5819 5818 5818 5818 5818 5819 5819 5820 5820 5822 5821 5823 5827 5827 5826 5829 5830
5917 5917 5918 5917 5915 5915 5915 5915 5916 5916 5916 5915 5914 5914 5913 5912 5912 5911 5910 5909 5907 5906 5905 5903 5902 5900 5899 5897 5895 5893 5892 5890 5888 5886 5884 5882 5880 5879 5877 5875 5872 5870 5868 5866 5864 5861 5859 5857 5854 5851 5848 5844 5841 5839 5836 5833 5831 5828 5826 5825 5824 5822 5820 5819 5818 5816 5815 5814 5813 5814 5814 5814 5812 5812 5813 5814 5814 5816 5817 5818 5820 5820 5821 5824 5824
5913 5914 5915 5914 5912 5912 5912 5912 5912 5913 5913 5912 5912 5911 5910 5910 5909 5908 5907 5906 5905 5903 5902 5900 5899 5897 5896 5894 5892 5891 5889 5887 5885 5883 5881 5880 5878 5876 5874 5872 5870 5867 5865 5863 5860 5858 5856 5853 5851 5848 5845 5842 5839 5835 5833 5830 5828 5825 5822 5821 5819 5818 5816 5814 5813 5812 5811 5809 5808 5808 5809 5808 5807 5806 5807 5808 5809 5810 5811 5812 5813 5814 5816 5817 5817
5908 5909 5911 5911 5909 5909 5910 5909 5909 5910 5910 5910 5909 5908 5908 5907 5906 5905 5904 5903 5902 5901 5899 5897 5896 5894 5893 5891 5889 5888 5886 5884 5882 5880 5878 5876 5874 5872 5870 5869 5866 5864 5862 5859 5857 5854 5852 5850 5847 5845 5842 5838 5835 5832 5829 5826 5824 5822 5819 5817 5815 5813 5812 5810 5808 5807 5805 5805 5804 5803 5803 5803 5803 5802 5801 5801 5802 5803 5804 5805 5806 5808 5809 5811 5811
5906 5906 5906 5907 5905 5906 5907 5907 5906 5906 5906 5906 5906 5905 5904 5904 5903 5902 5901 5900 5899 5898 5896 5894 5893 5891 5890 5888 5886 5884 5883 5881 5879 5877 5875 5873 5871 5869 5867 5865 5863 5860 5858 5855 5853 5851 5848 5846 5843 5841 5838 5835 5831 5828 5825 5822 5820 5817 5815 5813 5810 5809 5807 5806 5804 5802 5800 5799 5799 5798 5798 5798 5797 5796 5795 5795 5795 5796 5797 5798 5798 5800 5802 5803 5804
5905 5903 5903 5903 5902 5902 5904 5904 5904 5904 5903 5903 5902 5902 5901 5900 5900 5899 5898 5897 5896 5894 5893 5891 5890 5888 5886 5885 5883 5881 5879 5878 5876 5874 5872 5870 5868 5865 5863 5861 5859 5856 5854 5851 5849 5846 5844 5842 5839 5836 5834 5831 5827 5824 5820 5817 5814 5812 5810 5808 5806 5804 5802 5801 5799 5797 5795 5794 5793 5792 5792 5792 5791 5789 5789 5789 5790 5791 5791 5791 5791 5793 5794 5796 5798
5903 5901 5900 5899 5898 5899 5901 5901 5901 5901 5900 5900 5899 5899 5898 5897 5896 5895 5895 5894 5892 5891 5890 5888 5886 5884 5883 5881 5880 5878 5876 5874 5872 5870 5868 5866 5864 5861 5859 5857 5854 5852 5849 5847 5844 5842 5839 5837 5834 5831 5828 5825 5822 5819 5815 5812 5809 5807 5804 5802 5801 5799 5797 5796 5794 5792 5790 5788 5787 5787 5786 5785 5784 5783 5782 5783 5784 5785 5786 5786 5787 5788 5789 5791 5794
5900 5899 5899 5897 5895 5896 5898 5898 5898 5899 5898 5896 5896 5895 5895 5894 5893 5892 5891 5890 5889 5888 5886 5885 5883 5881 5880 5878 5876 5875 5873 5871 5869 5866 5864 5862 5860 5857 5855 5852 5850 5847 5845 5842 5840 5837 5834 5831 5828 5825 5822 5819 5816 5813 5809 5807 5804 5802 5799 5797 5795 5793 5791 5790 5788 5787 5786 5784 5782 5781 5780 5779 5778 5778 5776 5776 5777 5779 5780 5781 5782 5783 5785 5787 5789
5898 5897 5897 5895 5892 5893 5896 5895 5896 5896 5895 5893 5892 5892 5891 5890 5890 5889 5888 5887 5886 5884 5883 5881 5880 5878 5876 5875 5873 5871 5869 5867 5865 5863 5860 5858 5856 5853 5851 5848 5846 5843 5840 5837 5835 5832 5829 5826 5822 5819 5816 5813 5809 5806 5803 5801 5799 5796 5794 5792 5790 5788 5786 5784 5783 5782 5781 5779 5776 5775 5774 5773 5772 5772 5771 5770 5770 5771 5773 5774 5775 5777 5780 5781 5782
5895 5895 5894 5892 5890 5891 5893 5892 5893 5893 5892 5890 5889 5889 5888 5887 5886 5885 5884 5883 5882 5881 5879 5877 5876 5874 5873 5871 5869 5867 5865 5863 5861 5859 5856 5854 5852 5849 5846 5844 5841 5838 5836 5833 5829 5827 5824 5821 5817 5814 5811 5807 5804 5800 5797 5795 5792 5790 5788 5786 5785 5784 5781 5779 5777 5776 5775 5773 5771 5769 5767 5767 5766 5766 5766 5764 5764 5764 5765 5767 5768 5770 5773 5774 5775
5893 5892 5891 5889 5888 5889 5890 5890 5889 5890 5889 5887 5886 5885 5884 5883 5882 5881 5880 5879 5878 5877 5877 5875 5872 5870 5869 5867 5865 5863 5861 5859 5857 5854 5852 5850 5847 5845 5842 5839 5836 5834 5831 5828 5825 5822 5819 5816 5813 5809 5806 5802 5798 5795 5792 5789 5786 5784 5782 5781 5779 5778 5776 5774 5772 5770 5769 5768 5765 5763 5761 5760 5760 5760 5760 5759 5758 5757 5757 5759 5761 5762 5765 5767 5769
5890 5889 5888 5887 5886 5886 5887 5887 5886 5886 5885 5884 5883 5882 5880 5879 5878 5877 5876 5875 5874 5873 5872 5871 5868 5866 5864 5863 5861 5859 5857 5855 5852 5850 5848 5845 5842 5840 5837 5835 5832 5829 5826 5823 5820 5817 5813 5811 5808 5804 5801 5797 5793 5789 5787 5783 5780 5778 5776 5774 5773 5772 5771 5769 5767 5764 5763 5762 5760 5757 5755 5754 5754 5753 5753 5753 5752 5751 5751 5752 5753 5755 5757 5760 5763
5887 5887 5886 5885 5884 5884 5884 5884 5883 5882 5882 5880 5879 5878 5877 5876 5875 5873 5871 5871 5870 5868 5867 5866 5864 5862 5860 5859 5857 5855 5853 5850 5848 5846 5843 5840 5838 5835 5832 5829 5827 5824 5821 5818 5815 5812 5808 5805 5802 5799 5795 5792 5787 5784 5781 5778 5775 5772 5771 5768 5767 5767 5766 5764 5762 5759 5757 5755 5754 5752 5749 5748 5748 5747 5747 5746 5745 5745 5745 5745 5746 5748 5750 5753 5757
5885 5884 5883 5882 5882 5881 5880 5880 5879 5879 5878 5877 5876 5875 5874 5873 5872 5870 5868 5866 5865 5864 5863 5861 5859 5858 5856 5855 5853 5850 5848 5846 5844 5841 5839 5836 5833 5830 5827 5824 5821 5818 5815 5812 5809 5806 5803 5799 5797 5793 5790 5787 5784 5780 5776 5773 5770 5767 5766 5764 5762 5762 5760 5759 5757 5754 5751 5749 5748 5746 5743 5742 5741 5741 5740 5739 5739 5739 5739 5738 5740 5742 5744 5747 5750
5882 5881 5880 5879 5879 5879 5877 5876 5876 5875 5875 5874 5873 5871 5870 5869 5868 5867 5865 5863 5861 5860 5858 5857 5855 5853 5852 5850 5848 5846 5844 5841 5839 5837 5834 5832 5829 5826 5823 5820 5817 5813 5810 5807 5803 5800 5797 5794 5791 5787 5784 5782 5779 5776 5772 5769 5766 5763 5761 5759 5758 5756 5755 5754 5752 5749 5747 5744 5742 5740 5738 5736 5735 5734 5733 5733 5732 5731 5732 5732 5733 5735 5737 5739 5742
5878 5877 5877 5876 5875 5875 5874 5873 5872 5872 5871 5870 5869 5868 5867 5866 5865 5863 5861 5859 5858 5856 5854 5853 5851 5850 5848 5846 5844 5842 5839 5837 5834 5832 5830 5827 5824 5821 5818 5815 5812 5809 5806 5802 5798 5795 5791 5788 5785 5781 5778 5776 5773 5770 5767 5763 5761 5759 5757 5755 5753 5752 5750 5749 5747 5745 5742 5740 5738 5735 5733 5730 5728 5727 5727 5726 5726 5725 5725 5726 5726 5728 5730 5733 5736
5874 5873 5873 5872 5871 5871 5871 5869 5868 5868 5868 5866 5865 5864 5863 5862 5861 5860 5858 5856 5855 5853 5851 5849 5848 5846 5844 5841 5839 5837 5835 5832 5830 5827 5825 5822 5820 5817 5814 5811 5808 5805 5801 5798 5794 5790 5787 5783 5780 5776 5773 5770 5768 5765 5761 5758 5756 5754 5752 5751 5749 5747 5746 5745 5743 5740 5737 5735 5733 5730 5727 5725 5722 5721 5720 5720 5720 5719 5719 5719 5720 5721 5723 5726 5729
5870 5869 5868 5867 5867 5866 5866 5865 5864 5864 5863 5862 5861 5860 5859 5858 5857 5856 5854 5852 5851 5849 5847 5845 5844 5842 5840 5837 5835 5833 5830 5827 5825 5823 5820 5818 5815 5812 5809 5806 5803 5799 5796 5793 5790 5786 5782 5778 5774 5771 5768 5765 5763 5760 5757 5754 5752 5750 5748 5746 5745 5743 5742 5741 5739 5736 5733 5731 5729 5725 5722 5720 5717 5715 5714 5714 5714 5713 5713 5713 5713 5714 5716 5719 5721
5866 5865 5865 5863 5863 5862 5862 5861 5860 5859 5859 5858 5857 5857 5856 5855 5854 5852 5850 5849 5847 5845 5843 5841 5840 5838 5836 5833 5831 5828 5826 5823 5820 5818 5815 5813 5810 5807 5804 5801 5798 5794 5791 5788 5785 5781 5778 5774 5770 5766 5763 5761 5759 5756 5753 5751 5748 5746 5744 5743 5741 5740 5738 5736 5735 5733 5730 5727 5725 5721 5717 5715 5712 5710 5709 5708 5708 5707 5707 5707 5708 5708 5710 5712 5714
5862 5862 5861 5860 5859 5859 5858 5857 5856 5855 5855 5854 5853 5853 5852 5851 5849 5847 5846 5844 5842 5840 5839 5837 5836 5834 5832 5829 5826 5824 5821 5818 5816 5813 5810 5807 5804 5801 5799 5796 5793 5789 5786 5783 5780 5777 5773 5769 5766 5762 5759 5756 5754 5752 5750 5747 5745 5743 5742 5740 5738 5737 5735 5733 5731 5729 5726 5723 5721 5718 5714 5710 5708 5706 5704 5702 5702 5702 5702 5702 5702 5703 5704 5706 5708
5859 5858 5858 5857 5856 5855 5854 5853 5852 5851 5851 5850 5849 5849 5848 5846 5844 5843 5841 5840 5838 5836 5835 5833 5832 5830 5827 5825 5822 5819 5817 5814 5811 5808 5805 5802 5799 5796 5794 5791 5788 5785 5782 5779 5776 5772 5769 5765 5762 5758 5755 5753 5750 5748 5746 5744 5742 5740 5739 5737 5735 5733 5731 5729 5727 5725 5723 5720 5717 5714 5710 5707 5704 5701 5699 5698 5697 5697 5697 5697 5697 5698 5699 5700 5702
5855 5855 5854 5853 5852 5851 5850 5849 5848 5848 5847 5845 5845 5845 5843 5841 5840 5839 5837 5835 5834 5833 5831 5829 5828 5826 5823 5820 5817 5815 5812 5809 5806 5803 5800 5797 5794 5792 5789 5786 5783 5780 5778 5775 5771 5768 5765 5761 5758 5755 5752 5749 5747 5745 5743 5741 5739 5737 5735 5733 5732 5730 5728 5725 5723 5721 5719 5716 5713 5710 5707 5703 5700 5697 5694 5693 5692 5691 5692 5692 5693 5693 5694 5696 5697
5851 5851 5850 5849 5848 5847 5846 5845 5845 5844 5842 5842 5841 5840 5838 5837 5836 5835 5834 5831 5830 5828 5827 5825 5823 5821 5818 5815 5812 5810 5808 5805 5802 5799 5796 5793 5790 5787 5784 5781 5778 5776 5773 5770 5767 5764 5761 5758 5754 5751 5749 5746 5744 5741 5739 5737 5735 5734 5732 5730 5728 5726 5724 5722 5720 5718 5716 5713 5710 5706 5703 5700 5697 5694 5691 5689 5687 5687 5687 5688 5688 5689 5690 5691 5692
5848 5847 5846 5846 5845 5844 5843 5842 5841 5840 5839 5838 5837 5835 5834 5833 5832 5831 5830 5828 5826 5824 5822 5820 5818 5816 5813 5810 5808 5806 5804 5801 5797 5794 5791 5788 5785 5782 5779 5777 5774 5772 5769 5766 5762 5759 5756 5754 5751 5748 5746 5743 5740 5738 5736 5734 5732 5731 5729 5727 5725 5723 5721 5719 5717 5715 5712 5710 5706 5703 5699 5696 5693 5690 5687 5685 5683 5683 5682 5683 5684 5685 5686 5687 5689
5844 5843 5843 5842 5841 5840 5839 5838 5837 5836 5835 5834 5833 5831 5830 5829 5828 5827 5825 5823 5821 5819 5817 5815 5814 5812 5809 5806 5804 5801 5799 5796 5793 5789 5786 5783 5780 5777 5775 5772 5770 5767 5764 5761 5758 5755 5753 5750 5747 5745 5742 5739 5737 5735 5733 5731 5730 5728 5726 5724 5722 5720 5718 5716 5714 5712 5709 5706 5702 5699 5696 5692 5689 5687 5684 5681 5680 5679 5678 5678 5679 5680 5681 5683 5685
5840 5840 5839 5838 5837 5836 5835 5834 5833 5832 5831 5830 5829 5828 5826 5825 5824 5822 5821 5819 5817 5814 5812 5811 5809 5807 5804 5802 5799 5796 5794 5791 5788 5785 5782 5779 5776 5773 5770 5768 5766 5763 5760 5757 5754 5751 5749 5747 5744 5741 5739 5736 5734 5731 5730 5728 5727 5725 5723 5721 5719 5717 5715 5713 5711 5708 5705 5703 5699 5696 5692 5689 5687 5684 5681 5679 5676 5675 5674 5674 5675 5676 5677 5679 5680
5836 5835 5834 5833 5833 5832 5831 5830 5829 5828 5827 5825 5824 5823 5822 5821 5819 5817 5816 5814 5812 5810 5808 5807 5805 5803 5800 5797 5794 5791 5788 5786 5783 5780 5777 5774 5771 5768 5766 5763 5761 5759 5756 5754 5751 5748 5746 5743 5741 5738 5735 5733 5731 5728 5726 5725 5724 5723 5721 5719 5717 5715 5712 5710 5708 5705 5702 5699 5696 5693 5689 5686 5684 5681 5679 5677 5674 5671 5670 5670 5671 5673 5674 5675 5677
5831 5831 5830 5829 5828 5827 5826 5825 5824 5823 5822 5821 5820 5819 5818 5816 5815 5813 5811 5809 5807 5806 5804 5802 5800 5798 5796 5792 5789 5786 5783 5780 5778 5775 5772 5769 5766 5764 5761 5759 5757 5755 5752 5750 5747 5745 5743 5740 5738 5735 5733 5730 5728 5725 5723 5722 5721 5720 5718 5717 5714 5712 5710 5707 5705 5702 5700 5697 5694 5690 5687 5684 5681 5679 5676 5674 5671 5669 5667 5667 5667 5668 5670 5671 5673
5826 5826 5825 5824 5823 5822 5821 5820 5819 5819 5818 5817 5816 5814 5813 5811 5810 5808 5806 5804 5802 5801 5799 5797 5795 5792 5790 5787 5784 5781 5778 5775 5773 5770 5767 5764 5762 5760 5757 5755 5753 5750 5747 5745 5743 5741 5739 5737 5735 5733 5730 5728 5726 5723 5721 5720 5719 5717 5716 5714 5712 5710 5708 5705 5702 5699 5697 5694 5691 5688 5685 5682 5679 5676 5673 5671 5669 5667 5665 5664 5663 5664 5666 5668 5670
5822 5821 5820 5819 5818 5817 5816 5816 5815 5814 5813 5812 5811 5809 5808 5806 5804 5803 5801 5799 5797 5795 5794 5792 5790 5787 5785 5782 5779 5776 5773 5770 5768 5765 5762 5760 5757 5756 5754 5751 5748 5745 5743 5741 5738 5737 5735 5733 5731 5729 5727 5725 5723 5721 5719 5717 5716 5715 5713 5711 5709 5707 5705 5703 5700 5697 5694 5692 5689 5687 5684 5681 5677 5674 5672 5669 5667 5665 5663 5661 5660 5661 5663 5664 5666
5817 5816 5815 5814 5813 5812 5811 5811 5810 5809 5808 5807 5806 5804 5802 5801 5799 5797 5795 5794 5792 5790 5788 5786 5784 5782 5779 5776 5774 5771 5768 5766 5763 5761 5758 5756 5753 5751 5750 5746 5743 5740 5738 5736 5734 5733 5732 5730 5728 5726 5724 5722 5720 5718 5716 5714 5714 5712 5710 5708 5706 5704 5703 5700 5698 5695 5693 5690 5687 5685 5682 5679 5676 5673 5671 5668 5666 5664 5662 5660 5658 5658 5659 5661 5662
5812 5811 5810 5808 5808 5807 5806 5805 5804 5804 5803 5801 5800 5799 5797 5796 5794 5792 5790 5789 5787 5785 5783 5781 5778 5776 5774 5771 5768 5766 5763 5761 5759 5756 5754 5752 5749 5747 5745 5743 5740 5737 5734 5732 5731 5730 5728 5726 5725 5723 5722 5719 5717 5714 5712 5711 5710 5709 5707 5706 5704 5702 5700 5698 5696 5693 5691 5688 5686 5683 5681 5678 5675 5672 5669 5667 5665 5662 5660 5658 5656 5655 5655 5656 5658
5807 5807 5805 5804 5802 5802 5801 5800 5799 5798 5797 5796 5795 5794 5792 5791 5789 5787 5785 5783 5781 5779 5778 5775 5773 5770 5768 5765 5763 5761 5759 5756 5754 5752 5750 5747 5745 5743 5741 5739 5736 5733 5731 5729 5727 5726 5725 5723 5721 5720 5719 5717 5714 5712 5709 5707 5707 5706 5704 5703 5701 5699 5698 5696 5693 5691 5689 5686 5684 5682 5679 5677 5674 5671 5669 5666 5663 5661 5658 5656 5654 5652 5652 5652 5654
5802 5802 5800 5798 5798 5797 5795 5795 5794 5793 5792 5791 5790 5788 5787 5785 5783 5781 5779 5778 5776 5774 5772 5770 5767 5764 5762 5760 5758 5756 5754 5751 5749 5747 5745 5744 5742 5739 5737 5734 5733 5730 5729 5727 5725 5723 5722 5720 5717 5716 5715 5713 5712 5710 5707 5704 5703 5703 5701 5699 5698 5696 5695 5693 5691 5688 5687 5684 5682 5680 5678 5676 5673 5671 5669 5666 5663 5659 5657 5655 5652 5650 5650 5650 5651
5796 5796 5795 5793 5792 5792 5790 5789 5788 5788 5787 5785 5783 5782 5781 5779 5777 5776 5774 5772 5771 5768 5766 5764 5762 5759 5757 5755 5753 5751 5748 5747 5744 5742 5741 5740 5738 5735 5732 5730 5728 5726 5725 5724 5722 5720 5718 5716 5714 5712 5711 5709 5708 5706 5704 5702 5700 5699 5698 5697 5695 5693 5692 5690 5688 5686 5684 5682 5680 5678 5676 5675 5672 5670 5668 5666 5663 5658 5655 5654 5652 5650 5649 5649 5650
5790 5790 5789 5788 5787 5786 5785 5784 5783 5782 5781 5779 5777 5776 5774 5773 5772 5770 5768 5766 5765 5762 5760 5758 5756 5754 5751 5749 5747 5745 5743 5741 5739 5738 5737 5735 5733 5730 5727 5725 5723 5722 5720 5719 5717 5715 5714 5712 5710 5708 5707 5705 5703 5702 5701 5699 5698 5696 5695 5693 5692 5690 5689 5687 5686 5684 5682 5680 5678 5676 5674 5673 5671 5670 5668 5666 5663 5659 5656 5653 5651 5649 5648 5647 5647
5784 5783 5782 5782 5781 5780 5779 5778 5777 5776 5775 5774 5773 5771 5769 5767 5765 5764 5762 5759 5758 5756 5754 5752 5750 5748 5746 5744 5742 5740 5738 5736 5734 5732 5731 5728 5726 5724 5723 5720 5718 5717 5715 5713 5711 5710 5709 5707 5705 5704 5703 5701 5699 5699 5697 5696 5695 5693 5692 5690 5689 5687 5686 5685 5684 5682 5680 5678 5676 5674 5672 5671 5669 5668 5667 5665 5663 5659 5656 5653 5651 5649 5647 5646 5645
5778 5777 5777 5776 5775 5774 5773 5773 5772 5770 5769 5768 5767 5766 5764 5761 5759 5758 5756 5753 5751 5749 5748 5746 5744 5742 5741 5739 5738 5735 5732 5730 5729 5727 5725 5723 5720 5719 5717 5716 5714 5712 5710 5709 5707 5705 5704 5702 5701 5700 5699 5697 5696 5695 5694 5693 5691 5690 5689 5687 5686 5684 5683 5682 5681 5680 5678 5676 5674 5672 5670 5669 5667 5666 5665 5663 5662 5659 5656 5654 5651 5648 5647 5645 5644
5773 5772 5771 5770 5769 5769 5768 5767 5766 5765 5764 5763 5761 5759 5758 5756 5753 5751 5749 5747 5745 5743 5741 5740 5738 5736 5735 5734 5732 5730 5727 5725 5724 5723 5721 5719 5715 5713 5711 5710 5709 5707 5705 5704 5702 5700 5699 5698 5696 5696 5695 5694 5692 5692 5691 5689 5688 5686 5685 5684 5683 5681 5680 5679 5678 5677 5676 5675 5673 5670 5668 5667 5666 5664 5663 5662 5660 5658 5656 5654 5651 5648 5646 5645 5644